    Observer details:
    104 San Marcello Pistoiese.  Observers P. Bacci, M. Maestripieri.  Measurer P.
        Bacci.  0.60-m f/4.0 reflector + CCD.
    204 Schiaparelli Observatory.  Observer L. Buzzi.  0.84-m f/3.5 reflector +
        CCD.
    246 Klet Observatory-KLENOT.  Observers M. Tichy, J. Ticha, M. Honkova, M.
        Janda.  Measurer M. Tichy.  1.06-m f/2.7 Reflector + 2048x2048 CCD.
    595 Farra d'Isonzo.  Observers G. Panterotto, E. Pettarin, A. Toso.  Measurer
        E. Pettarin.  0.40-m f/5.15 reflector + CCD.
    654 Table Mountain Observatory, Wrightwood-PHMC.  Observers N. Evans, P. Choi,
        N. Saini, C. Zhai, R. Trahan, M. Shao.  1.0-m Reflector + CCD.
    958 Observatoire de Dax.  Observer P. Dupouy.  0.50-m f/4.5 Reflector + CCD.
    G02 KYSUCE Observatory, Kysucke Nove Mesto.  Observer M. Urbanik.  0.40-m
        f/5.5 Corrected Dall-Kirkham + CCD.
    G34 Oberfrauendorf.  Observer T. Felber.  0.35-m f/6.3 Schmidt-Cassegrain +
        CCD.
    J95 Great Shefford.  Observer P. Birtwhistle.  0.41-m f/6.3 Schmidt-Cassegrain
        + CCD.
    K38 M57 Observatory, Saltrio.  Observer G. Baj.  0.35-m f/5.3 Ritchey-Chretien
        + CCD.
    K63 G. Pascoli Observatory, Castelvecchio Pascoli.  Observer R. Bacci.  0.41-m
        f/3.2 Reflector + CCD.
    K83 Beppe Forti Astronomical Observatory, Montelupo.  Observers M. Tombelli,
        G. Interrante, T. Bitossi, A. Boattini, A. Mazzanti, M. Poggianti.
        Measurers M. Tombelli, F. Bernardi.  0.40-m f/8 Ritchey-Chretien + CCD.
    K88 GINOP-KHK, Piszkesteto.  Observer K. Sarneczky.  0.60-m Schmidt + CCD.
    L01 Visnjan Observatory, Tican.  Observer K. Korlevic.  1.0-m f/2.9 reflector
        + CCD.
    Z80 Northolt Branch Observatory.  Observer G. Wells.  Measurers G. Wells, D.
        Bamberger.  0.25-m f/8.0 Ritchey-Chretien + CCD.
    Z99 Clixby Observatory, Cleethorpes.  Observer A. Mickleburgh.  0.356-m f/8
        Schmidt-Cassegrain + CCD.
    
    Orbital elements:
    2022 UA21                                                Earth MOID = 0.0030 AU
    Epoch 2022 Aug. 9.0 TT = JDT 2459800.5                  Veres                   
    M 311.81409              (2000.0)            P               Q                  
    n   0.59542867     Peri.  358.64423     +0.82096812     -0.57038319             
    a   1.3993174      Node    36.17259     +0.52427165     +0.73502245             
    e   0.2885173      Incl.    2.52171     +0.22616494     +0.36661291             
    P   1.66           H   29.17          G   0.15           U   6                  
    Residuals in seconds of arc
    221030 K88  0.3-  0.3+    221030 G02  0.6+  1.2+    221030 K83 (2.2+  3.0+)
    221030 K88  1.7+  1.7+    221030 246  0.1-  1.4-    221030 K83 (2.9+  2.9+)
    221030 K88  0.5-  0.5-    221030 246  1.5+  0.6-    221030 K83  0.1-  0.7-
    221030 K88  1.1+  0.0     221030 246  0.5+  0.6+    221030 J95  0.6-  0.2-
    221030 K88  0.0   1.4-    221030 246  0.3-  0.4-    221030 J95  0.4-  0.5-
    221030 K88  0.3-  0.6-    221030 246  0.4+  1.4-    221030 J95  0.6-  0.6-
    221030 K88  0.4+  0.3+    221030 246  0.7+  0.4-    221030 J95  0.2-  0.1-
    221030 K88  0.6+  0.1-    221030 G02  1.0+  1.5+    221030 Z99  0.2-  0.7-
    221030 K88  0.0   0.0     221030 K88  0.4-  0.4-    221030 Z99  0.0   0.6-
    221030 K88  0.3+  0.0     221030 K88  0.5-  0.5-    221030 Z99  0.5-  0.2-
    221030 K88  0.2-  0.8-    221030 K88  0.3-  0.7-    221030 Z99  0.4-  0.8-
    221030 K88  0.8-  2.0-    221030 Z80  0.8+  0.3+    221030 104  0.3+  0.6+
    221030 K88  0.0   0.4-    221030 L01  0.4-  0.5-    221030 104  0.2+  0.7+
    221030 K88  0.1-  0.5-    221030 L01  0.4-  0.4-    221030 204  0.2-  0.5-
    221030 J95  0.1+  0.5-    221030 L01  0.7-  0.5-    221030 204  0.6-  0.7-
    221030 J95  0.0   0.1+    221030 L01  0.6-  0.3-    221030 204  0.2-  0.6-
    221030 J95  0.6-  0.0     221030 L01  0.5-  0.3-    221030 K88  0.3-  0.6-
    221030 J95  0.3-  0.2-    221030 L01  0.4-  0.4-    221030 K88  0.2-  0.8-
    221030 595  0.0   0.0     221030 246  0.0   0.5-    221030 K88  0.2-  0.5-
    221030 K88  0.1+  0.3-    221030 246  0.1-  0.3+    221030 K88  0.1-  0.7-
    221030 K88  0.4-  0.4-    221030 246  0.0   0.2-    221030 K38  0.2+  0.1+
    221030 K88  0.1+  0.1-    221030 246  0.2+  0.4+    221030 K38  0.3+  0.4+
    221030 595  0.7-  0.2-    221030 246  0.7-  0.1+    221031 958  0.9-  1.9-
    221030 K63  0.0   0.3-    221030 G34  0.7+  0.8+    221031 958  0.5-  0.1-
    221030 K63  0.1-  0.6+    221030 G34  0.6+  1.1+    221031 958  0.2+  0.1-
    221030 K63  0.7+  0.8+    221030 G34  0.2+  0.6+    221031 958  0.4-  0.2-
    221030 595  0.0   0.9+    221030 G34  0.1+  0.1+    221031 958  0.3-  1.0-
    221030 G02  0.1-  0.1+    221030 G34  0.9+  0.8+    221031 654  0.2-  0.1-
    221030 G02  0.1-  0.8+    221030 G34  0.6+  1.1+    221031 654  0.0   0.0
    221030 G02  0.1+  0.4+    221030 G34  0.9+  0.8+    221031 654  0.1+  0.0
    221030 G02  0.2+  0.4+    221030 K83  0.4-  0.1-
    221030 Z80  0.0   0.1+    221030 K83 (2.6+  3.0+)
    
    Ephemeris:
    2022 UA21                a,e,i = 1.40, 0.29, 3                   q = 0.9956
    Date    TT    R. A. (2000) Decl.     Delta      r    Elong.  Phase     V
    2022 10 01    20 26 33.1 -39 45 09   0.07040 1.0280   110.4    66.0    25.8
    ...
    2022 10 16    20 32 11.4 -38 39 24   0.03645 1.0027    97.9    80.1    24.8
    ...
    2022 10 24    20 52 57.8 -35 25 07   0.01745 0.9966    95.3    83.7    23.3
    ...
    2022 10 30    22 58 36.0 -05 31 15   0.0039330.9956   127.5    52.3    19.1
    2022 10 31    00 46 59.2 +24 44 32   0.0030290.9957   155.7    24.2    17.7
    2022 11 01    03 37 24.3 +47 30 45   0.0039040.9958   143.4    36.5    18.6
    ...
    2022 11 07    07 44 09.5 +43 49 33   0.01748 0.9979   112.3    66.7    22.7
    ...
    2022 11 15    08 07 43.6 +41 07 15   0.03668 1.0055   115.3    62.8    24.2
    ...
    2022 11 30    08 06 05.2 +39 54 28   0.07203 1.0337   129.5    47.4    25.3
    
    M. P. C. Staff               (C) Copyright 2022 MPC           M.P.E.C. 2022-U403
    


    Read MPEC 2022-U402 Read MPEC 2022-U404


    MPEC number:

    Enter an MPEC number in one of the following forms:

    • 1997-B01 (the full form)
    • J97B01 (the packed version of the full form)
    • B01 (the abbreviated form)